Tracking 25648 objects as of 17-May-2022
HD Live streaming from Space Station
objects crossing your sky now

COSMOS 2251 DEB

Track COSMOS 2251 DEB now!
10-day predictions


NORAD ID: 35593
Int'l Code: 1993-036AML
Perigee: 760.6 km
Apogee: 921.0 km
Inclination: 74.1 °
Period: 101.6 minutes
Semi major axis: 7211 km
RCS: 0.0121 m2 (small)
Launch date: June 16, 1993
Source: Commonwealth of Independent States (former USSR) (CIS)
Launch site: PLESETSK MISSILE AND SPACE COMPLEX (PKMTR)

Note: This is SATELLITE DEBRIS
aabbcc
Your satellite tracking list
Your tracking list is empty




NASA's NSSDC Master Catalog

Two Line Element Set (TLE):
1 35593U 93036AML 22136.18585334  .00001391  00000-0  65573-3 0  9990
2 35593  74.0874 102.4043 0111171  78.0692 283.2889 14.17547902665068
Source of the keplerian elements: AFSPC